Messwerte King Salmon

Temperatur

Temperatur
°C
1606564800 3.00 3.00 -1
1606568400 4.00 4.00 -1
1606572000 5.00 5.00 -1
1606575600 6.00 6.00 -1
1606579200 7.00 7.00 -2
1606582800 8.00 8.00 -3
1606586400 9.00 9.00 -4
1606590000 10.00 10.00
1606593600 11.00 11.00 -4
1606597200 12.00 12.00 -4
1606600800 13.00 13.00 -4
1606604400 14.00 14.00 -4
1606608000 15.00 15.00 -4
1606611600 16.00 16.00 -3
1606615200 17.00 17.00 -3
1606618800 18.00 18.00
1606622400 19.00 19.00 -6
1606626000 20.00 20.00 -5
1606629600 21.00 21.00 -4
1606633200 22.00 22.00 -5
1606636800 23.00 23.00 -5
1606640400 0.00 0.00 -4
1606644000 1.00 1.00 -4
1606647600 2.00 2.00 -5

Aktuellste Messwerte

Wettercharakter
Wetter: bedeckt, etwas Schnee
Temperatur
-6 °C
Feuchtigkeit
93 %
Wind
20 km/hWindrichtung: Nordwest
Luftdruck
982 hPa
Messzeit: 29. November 2020, 3.00Datenquelle: METAR

Weitere Messstationen in der Nähe

Messstation Temperatur Entfernung
Egegik -3 °C 68 km
Dillingham -6 °C 115 km
Manokotak -6 °C 143 km
Iliamna -6 °C 155 km
Port Heiden -1 °C 224 km
Kodiak -3 °C 264 km
Sparrevohn -13 °C 277 km

Wind

Windrichtung Böen Mittelwind
° km/h km/h
1606564800 3.00 2.00 - 3.00 30° 10
1606568400 4.00 3.00 - 4.00 330° 10
1606572000 5.00 4.00 - 5.00 350° 10
1606575600 6.00 5.00 - 6.00 360° 15
1606579200 7.00 6.00 - 7.00 350° 15
1606582800 8.00 7.00 - 8.00 340° 15
1606586400 9.00 8.00 - 9.00 310° 5
1606590000 10.00 9.00 - 10.00
1606593600 11.00 10.00 - 11.00 300° 5
1606597200 12.00 11.00 - 12.00 320° 10
1606600800 13.00 12.00 - 13.00 300° 5
1606604400 14.00 13.00 - 14.00 280° 15
1606608000 15.00 14.00 - 15.00 270° 15
1606611600 16.00 15.00 - 16.00 250° 15
1606615200 17.00 16.00 - 17.00 250° 10
1606618800 18.00 17.00 - 18.00
1606622400 19.00 18.00 - 19.00 160° 10
1606626000 20.00 19.00 - 20.00 180° 5
1606629600 21.00 20.00 - 21.00 230° 5
1606633200 22.00 21.00 - 22.00 180° 5
1606636800 23.00 22.00 - 23.00 270° 5
1606640400 0.00 23.00 - 0.00 250° 5
1606644000 1.00 0.00 - 1.00 280° 15
1606647600 2.00 1.00 - 2.00 290° 15

Ihre Wetterstation

Fehlt Ihre Wetterstation auf unserem Portal?

Schreiben Sie an network@meteonews.ch

Klima

Wann ist es am wärmsten? Wann regnet es am wenigsten? Unsere Klimadaten geben Auskunft.